| time (UTC) | temp F | wind direction | speed MPH | gust MPH | rain 1hr in | rain 24hr in | rain mn in | humidity % | barometer mb |
| 20260510094530 | 49 | 20 | 0.0 | 0.0 | 0.01 | 0.01 | 0.01 | 73 | 1022.1 |
| 20260510093027 | 49 | 22 | 0.0 | 2.0 | 0.01 | 0.01 | 0.01 | 76 | 1022.3 |
| 20260510091542 | 48 | 11 | 0.0 | 1.0 | 0.01 | 0.01 | 0.01 | 80 | 1022.4 |
| 20260510090019 | 47 | 20 | 0.0 | 2.0 | 0.00 | 0.00 | 0.00 | 84 | 1022.5 |
| 20260510084514 | 46 | 15 | 0.0 | 1.0 | 0.00 | 0.00 | 0.00 | 88 | 1022.7 |
| 20260510083012 | 45 | 354 | 0.0 | 3.0 | 0.00 | 0.00 | 0.00 | 91 | 1022.7 |
| 20260510081525 | 45 | 12 | 0.0 | 4.0 | 0.00 | 0.00 | 0.00 | 92 | 1022.8 |
| 20260510080009 | 44 | 6 | 0.0 | 2.0 | 0.00 | 0.00 | 0.00 | 94 | 1022.8 |
| 20260510074507 | 44 | 314 | 0.0 | 2.0 | 0.00 | 0.00 | 0.00 | 96 | 1022.8 |
| 20260510073100 | 42 | 313 | 0.0 | 1.0 | 0.00 | 0.00 | 0.00 | 96 | 1023.0 |
| 20260510071559 | 42 | 297 | 0.0 | 1.0 | 0.00 | 0.00 | 0.00 | 96 | 1023.0 |
| 20260510070157 | 41 | 17 | 0.0 | 1.0 | 0.00 | 0.00 | 0.00 | 96 | 1023.0 |
| 20260510064608 | 40 | 345 | 0.0 | 1.0 | 0.00 | 0.00 | 0.00 | 96 | 1023.2 |
| 20260510063054 | 39 | 360 | 0.0 | 1.0 | 0.00 | 0.00 | 0.00 | 96 | 1023.3 |
| 20260510061553 | 38 | 343 | 0.0 | 1.0 | 0.00 | 0.00 | 0.00 | 96 | 1023.3 |
| 20260510060053 | 37 | 343 | 0.0 | 0.0 | 0.00 | 0.00 | 0.00 | 96 | 1023.4 |
| 20260510054550 | 35 | 343 | 0.0 | 0.0 | 0.00 | 0.00 | 0.00 | 96 | 1023.5 |
| 20260510053050 | 34 | 343 | 0.0 | 0.0 | 0.00 | 0.00 | 0.00 | 96 | 1023.6 |
| 20260510051552 | 34 | 343 | 0.0 | 0.0 | 0.00 | 0.00 | 0.00 | 96 | 1023.7 |
| 20260510050057 | 34 | 343 | 0.0 | 0.0 | 0.00 | 0.00 | 0.00 | 96 | 1023.7 |
| 20260510044554 | 34 | 343 | 0.0 | 0.0 | 0.00 | 0.00 | 0.00 | 96 | 1023.6 |
| 20260510043046 | 34 | 343 | 0.0 | 0.0 | 0.00 | 0.00 | 0.00 | 96 | 1023.6 |
| 20260510041550 | 34 | 343 | 0.0 | 0.0 | 0.00 | 0.00 | 0.00 | 96 | 1023.6 |
| 20260510040043 | 34 | 343 | 0.0 | 0.0 | 0.00 | 0.00 | 0.00 | 96 | 1023.7 |
| 20260510034545 | 35 | 343 | 0.0 | 0.0 | 0.00 | 0.00 | 0.00 | 96 | 1023.7 |
| 20260510033040 | 35 | 343 | 0.0 | 0.0 | 0.00 | 0.00 | 0.00 | 96 | 1023.8 |
| 20260510031544 | 35 | 343 | 0.0 | 0.0 | 0.00 | 0.00 | 0.00 | 96 | 1023.8 |
| 20260510030038 | 36 | 343 | 0.0 | 0.0 | 0.00 | 0.00 | 0.00 | 96 | 1023.7 |
| 20260510024538 | 37 | 343 | 0.0 | 0.0 | 0.00 | 0.00 | 0.00 | 96 | 1023.5 |
| 20260510023032 | 37 | 343 | 0.0 | 0.0 | 0.00 | 0.00 | 0.00 | 96 | 1023.5 |
| 20260510021531 | 37 | 343 | 0.0 | 0.0 | 0.00 | 0.00 | 0.00 | 96 | 1023.6 |
| 20260510020030 | 37 | 343 | 0.0 | 0.0 | 0.00 | 0.00 | 0.00 | 96 | 1023.6 |
| 20260510014530 | 37 | 343 | 0.0 | 0.0 | 0.00 | 0.00 | 0.00 | 96 | 1023.6 |
| 20260510013025 | 38 | 343 | 0.0 | 0.0 | 0.00 | 0.00 | 0.00 | 96 | 1023.7 |
| 20260510011524 | 38 | 343 | 0.0 | 0.0 | 0.00 | 0.00 | 0.00 | 96 | 1023.8 |
| 20260510010022 | 39 | 343 | 0.0 | 0.0 | 0.00 | 0.00 | 0.00 | 96 | 1023.7 |
| 20260510004519 | 39 | 343 | 0.0 | 0.0 | 0.00 | 0.00 | 0.00 | 96 | 1023.8 |
| 20260510003017 | 39 | 345 | 0.0 | 0.0 | 0.00 | 0.00 | 0.00 | 96 | 1024.0 |
| 20260510001515 | 40 | 345 | 0.0 | 0.0 | 0.00 | 0.00 | 0.00 | 96 | 1024.0 |
| 20260510000013 | 40 | 344 | 0.0 | 0.0 | 0.00 | 0.00 | 0.00 | 96 | 1024.0 |
| 20260509234518 | 41 | 324 | 0.0 | 0.0 | 0.00 | 0.00 | 0.00 | 96 | 1024.1 |
| 20260509233016 | 41 | 323 | 0.0 | 0.0 | 0.00 | 0.00 | 0.00 | 96 | 1024.1 |
| 20260509231505 | 42 | 317 | 0.0 | 0.0 | 0.00 | 0.00 | 0.00 | 96 | 1024.1 |
| 20260509230004 | 42 | 315 | 0.0 | 0.0 | 0.00 | 0.00 | 0.00 | 96 | 1024.1 |
| 20260509224502 | 42 | 314 | 0.0 | 0.0 | 0.00 | 0.00 | 0.00 | 96 | 1024.1 |
| 20260509223001 | 42 | 311 | 0.0 | 0.0 | 0.00 | 0.00 | 0.00 | 96 | 1024.0 |
| 20260509221600 | 43 | 345 | 0.0 | 0.0 | 0.00 | 0.00 | 0.00 | 96 | 1024.1 |
| 20260509220057 | 43 | 5 | 0.0 | 0.0 | 0.00 | 0.00 | 0.00 | 96 | 1024.2 |
| 20260509214556 | 43 | 6 | 0.0 | 0.0 | 0.00 | 0.00 | 0.00 | 96 | 1024.1 |
| 20260509213056 | 44 | 6 | 0.0 | 0.0 | 0.00 | 0.00 | 0.00 | 96 | 1024.1 |
| 20260509211601 | 44 | 353 | 0.0 | 0.0 | 0.00 | 0.00 | 0.00 | 96 | 1024.2 |
| 20260509210107 | 44 | 19 | 0.0 | 4.0 | 0.00 | 0.00 | 0.00 | 96 | 1024.0 |
| 20260509204553 | 44 | 346 | 0.0 | 0.0 | 0.00 | 0.00 | 0.00 | 96 | 1023.9 |
| 20260509203051 | 44 | 13 | 1.0 | 4.0 | 0.00 | 0.00 | 0.00 | 96 | 1024.0 |
| 20260509201558 | 44 | 4 | 0.0 | 1.0 | 0.00 | 0.00 | 0.00 | 96 | 1023.9 |
| 20260509200058 | 44 | 13 | 0.0 | 2.0 | 0.00 | 0.00 | 0.00 | 96 | 1023.8 |
| 20260509194550 | 44 | 4 | 0.0 | 2.0 | 0.00 | 0.00 | 0.00 | 96 | 1023.8 |
| 20260509193053 | 43 | 18 | 0.0 | 3.0 | 0.00 | 0.00 | 0.00 | 96 | 1023.7 |
| 20260509191547 | 44 | 4 | 0.0 | 2.0 | 0.00 | 0.00 | 0.00 | 96 | 1023.7 |
| 20260509190052 | 44 | 30 | 0.0 | 3.0 | 0.00 | 0.00 | 0.00 | 96 | 1023.6 |
| 20260509184546 | 44 | 11 | 0.0 | 4.0 | 0.00 | 0.00 | 0.00 | 96 | 1023.7 |
| 20260509183043 | 44 | 16 | 1.0 | 7.0 | 0.00 | 0.00 | 0.00 | 96 | 1023.6 |
| 20260509181541 | 44 | 341 | 1.0 | 9.0 | 0.00 | 0.00 | 0.00 | 96 | 1023.4 |
| 20260509180038 | 44 | 4 | 0.0 | 7.0 | 0.00 | 0.00 | 0.00 | 96 | 1023.3 |
| 20260509174537 | 44 | 319 | 1.0 | 8.0 | 0.00 | 0.00 | 0.00 | 96 | 1023.2 |
| 20260509173036 | 44 | 359 | 3.0 | 10.0 | 0.00 | 0.00 | 0.00 | 96 | 1023.0 |
| 20260509171539 | 43 | 8 | 3.0 | 9.0 | 0.00 | 0.00 | 0.00 | 96 | 1023.1 |
| 20260509170034 | 44 | 342 | 3.0 | 7.0 | 0.00 | 0.00 | 0.00 | 96 | 1023.2 |
| 20260509164538 | 44 | 20 | 4.0 | 14.0 | 0.00 | 0.00 | 0.00 | 96 | 1023.1 |
| 20260509163051 | 44 | 22 | 3.0 | 10.0 | 0.00 | 0.00 | 0.00 | 96 | 1022.9 |
| 20260509161532 | 44 | 20 | 3.0 | 12.0 | 0.00 | 0.00 | 0.00 | 96 | 1023.0 |
| 20260509160025 | 44 | 359 | 4.0 | 10.0 | 0.00 | 0.00 | 0.00 | 96 | 1022.9 |
| 20260509154532 | 44 | 38 | 5.0 | 11.0 | 0.00 | 0.00 | 0.00 | 96 | 1022.8 |
| 20260509153025 | 43 | 345 | 4.0 | 13.0 | 0.00 | 0.00 | 0.00 | 96 | 1022.8 |
| 20260509151517 | 43 | 314 | 4.0 | 9.0 | 0.00 | 0.00 | 0.00 | 96 | 1022.7 |
| 20260509150016 | 44 | 342 | 1.0 | 8.0 | 0.00 | 0.00 | 0.00 | 96 | 1022.8 |
| 20260509144516 | 44 | 311 | 2.0 | 11.0 | 0.00 | 0.00 | 0.00 | 96 | 1022.7 |
| 20260509143010 | 44 | 312 | 3.0 | 11.0 | 0.00 | 0.00 | 0.00 | 96 | 1022.6 |
| 20260509141516 | 44 | 335 | 2.0 | 10.0 | 0.00 | 0.00 | 0.00 | 96 | 1022.4 |
| 20260509140006 | 45 | 308 | 0.0 | 16.0 | 0.00 | 0.00 | 0.00 | 96 | 1022.4 |
| 20260509134504 | 45 | 350 | 1.0 | 8.0 | 0.00 | 0.00 | 0.00 | 96 | 1022.4 |
| 20260509133107 | 45 | 342 | 4.0 | 10.0 | 0.00 | 0.00 | 0.00 | 96 | 1022.2 |
| 20260509131557 | 45 | 334 | 3.0 | 11.0 | 0.00 | 0.00 | 0.00 | 96 | 1022.2 |
| 20260509130059 | 45 | 34 | 2.0 | 11.0 | 0.00 | 0.00 | 0.00 | 96 | 1022.2 |
| 20260509124600 | 45 | 324 | 2.0 | 7.0 | 0.00 | 0.00 | 0.00 | 96 | 1022.1 |
| 20260509123103 | 45 | 323 | 1.0 | 8.0 | 0.00 | 0.00 | 0.00 | 96 | 1022.1 |
| 20260509121559 | 45 | 274 | 2.0 | 9.0 | 0.00 | 0.00 | 0.00 | 96 | 1021.8 |
| 20260509120049 | 46 | 316 | 2.0 | 13.0 | 0.00 | 0.00 | 0.00 | 96 | 1021.5 |
| 20260509114557 | 46 | 311 | 2.0 | 10.0 | 0.00 | 0.00 | 0.00 | 96 | 1021.5 |
| 20260509113042 | 47 | 327 | 1.0 | 7.0 | 0.00 | 0.00 | 0.00 | 96 | 1021.5 |
| 20260509111539 | 47 | 23 | 1.0 | 7.0 | 0.00 | 0.00 | 0.00 | 96 | 1021.4 |
| 20260509110039 | 47 | 321 | 0.0 | 7.0 | 0.00 | 0.00 | 0.00 | 96 | 1021.4 |
| 20260509104538 | 47 | 13 | 0.0 | 2.0 | 0.00 | 0.00 | 0.00 | 96 | 1021.5 |
| 20260509103037 | 48 | 5 | 0.0 | 2.0 | 0.00 | 0.00 | 0.00 | 96 | 1021.6 |
| 20260509101538 | 49 | 11 | 0.0 | 0.0 | 0.00 | 0.00 | 0.00 | 96 | 1021.4 |
| 20260509100035 | 48 | 315 | 0.0 | 0.0 | 0.00 | 0.00 | 0.00 | 96 | 1021.5 |